Location: Unspecified
(0.0000°N, 0.0000°E)
Time: 17:39:03
(UTC+00:00)

Transit 2A - All Passes

Search period start: 31 January 2015 00:00
Search period end: 10 February 2015 00:00
Orbit: 592 x 969 km, 66.7° (Epoch: 29 January)

Date Brightness Start Highest point End Pass type
(mag) Time Alt. Az. Time Alt. Az. Time Alt. Az.
31 Jan - 02:00:14 10° SW 02:04:39 51° WNW 02:09:30 10° N night (unlit)
31 Jan - 12:52:08 10° N 12:57:34 33° ENE 13:02:44 10° SE daylight
31 Jan - 14:36:20 10° WNW 14:40:42 20° WSW 14:44:34 10° SSW daylight
01 Feb - 01:26:27 10° SSW 01:30:59 88° ESE 01:35:59 10° NNE night (unlit)
01 Feb - 12:19:24 10° NNE 12:23:45 21° ENE 12:28:09 10° ESE daylight
01 Feb - 14:01:39 10° NW 14:07:01 32° WSW 14:11:54 10° S daylight
02 Feb - 00:52:59 10° S 00:57:21 49° ESE 01:02:09 10° NE night (unlit)
02 Feb - 11:47:32 10° NE 11:49:53 13° ENE 11:52:38 10° E daylight
02 Feb - 13:27:26 10° NW 13:33:21 51° WSW 13:38:46 10° S daylight
03 Feb - 00:19:53 10° SSE 00:23:43 27° ESE 00:27:55 10° NE night (unlit)
03 Feb - 02:04:12 10° W 02:06:54 14° WNW 02:09:26 10° NW night (unlit)
03 Feb - 12:53:34 10° NNW 12:59:42 83° WSW 13:05:19 10° SSE daylight
03 Feb - 23:47:22 10° SE 23:50:02 16° ESE 23:53:05 10° ENE night (unlit)
04 Feb - 01:29:13 10° WSW 01:33:05 25° WNW 01:37:06 10° NNW night (unlit)
04 Feb - 12:19:58 10° N 12:26:01 62° ENE 12:31:35 10° SSE daylight
05 Feb - 00:54:56 10° SW 00:59:19 43° WNW 01:04:05 10° N night (unlit)
05 Feb - 11:46:42 10° N 11:52:17 38° ENE 11:57:33 10° SE daylight
05 Feb - 13:31:37 10° WNW 13:35:24 17° WSW 13:38:40 10° SSW daylight
06 Feb - 00:21:02 10° SSW 00:25:37 77° WNW 00:30:40 10° NNE night (unlit)
06 Feb - 11:13:47 10° NNE 11:18:30 24° ENE 11:23:08 10° ESE daylight
06 Feb - 12:56:40 10° NW 13:01:42 27° WSW 13:06:14 10° SSW daylight
06 Feb - 23:47:27 10° S 23:51:58 60° ESE 23:56:57 10° NNE night (unlit)
07 Feb - 10:41:32 10° NE 10:44:38 15° ENE 10:48:01 10° E daylight
07 Feb - 12:22:18 10° NW 12:28:02 43° WSW 12:33:14 10° S daylight
07 Feb - 23:14:14 10° S 23:18:20 33° ESE 23:22:51 10° NE night (unlit)
08 Feb - 00:59:31 10° W 01:01:37 12° WNW 01:03:25 10° NW night (unlit)
08 Feb - 11:48:20 10° NNW 11:54:23 71° WSW 11:59:53 10° SSE daylight
08 Feb - 22:41:28 10° SSE 22:44:40 19° ESE 22:48:16 10° ENE night (unlit)
09 Feb - 00:24:06 10° WSW 00:27:45 21° WNW 00:31:29 10° NNW night (unlit)
09 Feb - 11:14:38 10° NNW 11:20:42 73° ENE 11:26:15 10° SSE daylight
09 Feb - 22:10:03 10° ESE 22:10:58 11° ESE 22:12:17 10° E night (unlit)
09 Feb - 23:49:38 10° SW 23:53:57 36° WNW 23:58:37 10° N night (unlit)
